STARLINK-37634, 69028

Orbit data source: Space-Track

STARLINK-37634, 69028 is a payload satellite owned by SpaceX/Seattle (US) in SSO that was launched on Wed, 06 May 2026 UTC via an FALCON 9 launch vehicle from the Air Force Western Test Range (AFWTR). Payload-class satellites include a variety of spacecraft equipped with specific instruments for various scientific and technological missions. These include communications satellites like Starlink; space stations such as the ISS; scientific satellites like the Hubble; Earth observation satellites from companies like Planet Labs, Umbra, and HawkEye 360; GPS; miniature CubeSats for education and research; and military/defense satellites.

Loading next visibility...
Identifier
69028, 2026-101D
Orbit
SSO
Country
Flag of USUS
Related business
Manufacturer
SpaceX/Seattle
Mission
Operational Commercial Communications
Bus & Motor
STARLINK V2MO, Unknown motor
Mass
575 kg wet, ~530 kg dry
Launch date (UTC)
2026-05-06 (3 months ago)
Launch vehicle
FALCON 9
Launch site
Air Force Western Test Range (AFWTR)
Object type
Payload
Rocket body
Debris
Shape & HBR
Box + 2 Pan, 17.7 m
Radar Cross Section
36.964 m², Large (>1 m²)

Expand to show TLE details & history
Last TLE update: 16 hours ago

TLE from 16 hours ago
0 STARLINK-37634
1 69028U 26101D   26206.53932923  .00024062  00000-0  74497-3 0  9995
2 69028  97.2861  60.8926 0002011 110.1322 250.0137 15.33456335 12453
Epoch: 2026-07-25T12:56Z
TLE epoch observation values (Epoch: 2026-07-25T12:56:38.045Z)
Latitude
-0.00005°
Longitude
-76.51607°
Altitude
469.092 km
Speed
7.631 km/s
True Right ascension
04h 03m 34s
True Declination
0° 00' 00"
Sunlit
Object was in daylight at epoch
Visualization orbit readout
Latitude
Unknown
Longitude
Unknown
Altitude
Unknown
Speed
Unknown
Apparent Right ascension
Unknown
Apparent Declination
Unknown
Sunlit
N/A
Visualization observer readout
Local Sidereal Time
18:02:58
Azimuth
Unknown
Elevation
Unknown
Doppler factor
Unknown
Orbital elements
Apogee altitude
463.828 km
Perigee altitude
461.077 km
Semi-major axis
6,840.589 km
Eccentricity
0.0002
Inclination
97.2861°
RAAN
60.8926°
Arg. of periapsis
110.1322°
True anomaly
249.99205°
Mean anomaly
250.0137°
Eccentric anomaly
250.00287°
Mean motion
3.83621 °/min
Orbital period
93.84 mins
BSTAR
0.00074497
Loading maneuver chart data...
Computing Atmospheric mass density...
Loading historical data...
Loading historical data...
Loading historical data...
Loading historical data...
Loading historical data...
Loading historical data...
Loading historical data...

Documentation

Showing up to 5 results
|